Weather History for Martinsburg, WV

Change the Weather History Date:

Saturday, February 2, 2013

  Actual Average Record
Temperature  
Mean Temperature 20 °F 32 °F  
Max Temperature 28 °F 41 °F 68 °F (1967)
Min Temperature 11 °F 23 °F -7 °F (1961)
Degree Days  
Heating Degree Days 45 33  
Month to date heating degree days 86 66  
Since 1 July heating degree days 2862 3149  
Cooling Degree Days 0 0  
Month to date cooling degree days 0 0  
Year to date cooling degree days 0 0  
Moisture  
Dew Point 10 °F    
Average Humidity 61    
Maximum Humidity 75    
Minimum Humidity 46    
Precipitation  
Precipitation 0.00 in 0.09 in 1.02 in (1956)
Month to date precipitation 0.01 0.17  
Year to date precipitation 3.41 2.61  
Sea Level Pressure  
Sea Level Pressure 30.19 in    
Wind  
Wind Speed 4 mph (South)    
Max Wind Speed 13 mph    
Max Gust Speed 16 mph    
Visibility 10 miles    
Events      
T = Trace of Precipitation, MM = Missing Value Source: NWS Daily Summary

Daily Weather History Graph

Daily Weather History Graph

Search for Another Location

Airport:

Trip Planner

Search our weather history database for the weather conditions in past years. The results will help you decide how hot, cold, wet, or windy it might be!

Date:

Astronomy

Feb. 02, 2013 Rise Set
Actual Time 7:18 AM EST 5:33 PM EST
Civil Twilight 6:49 AM EST 6:02 PM EST
Nautical Twilight 6:17 AM EST 6:34 PM EST
Astronomical Twilight 5:46 AM EST 7:05 PM EST
Moon No Moon Rise 10:29 AM EST (2/2)
Length of Visible Light 11h 12m
Length of Day
10h 15m
Waning Gibbous, 60% of the Moon is Illuminated
Feb 2
Waning Gibbous
Feb 3
Last Quarter
Feb 10
New
Feb 17
First Quarter
Feb 25
Full

Hourly Weather History & Observations

Time (EST) Temp. Windchill Dew Point Humidity Pressure Visibility Wind Dir Wind Speed Gust Speed Precip Events Conditions
12:53 AM 15.1 °F 4.2 °F 3.0 °F 59% 30.40 in 10.0 mi West 8.1 mph - N/A   Clear
1:53 AM 15.1 °F 9.4 °F 3.0 °F 59% 30.38 in 10.0 mi ESE 3.5 mph - N/A   Clear
2:53 AM 15.1 °F - 3.0 °F 59% 30.37 in 10.0 mi Calm Calm - N/A   Clear
4:53 AM 14.0 °F 8.2 °F 3.0 °F 62% 30.35 in 10.0 mi South 3.5 mph - N/A   Clear
5:53 AM 14.0 °F - 3.9 °F 64% 30.34 in 10.0 mi Calm Calm - N/A   Clear
7:53 AM 14.0 °F - 5.0 °F 67% 30.34 in 10.0 mi Calm Calm - N/A   Clear
8:53 AM 15.1 °F - 7.0 °F 70% 30.33 in 10.0 mi Calm Calm - N/A   Clear
9:53 AM 18.0 °F 9.8 °F 7.0 °F 62% 30.32 in 10.0 mi South 5.8 mph - N/A   Mostly Cloudy
10:53 AM 21.0 °F 14.6 °F 8.1 °F 57% 30.28 in 10.0 mi South 4.6 mph - N/A   Scattered Clouds
11:53 AM 23.0 °F 13.9 °F 8.1 °F 53% 30.24 in 10.0 mi South 8.1 mph - N/A   Mostly Cloudy
12:53 PM 24.1 °F 13.1 °F 8.1 °F 51% 30.19 in 10.0 mi SSW 11.5 mph - N/A   Mostly Cloudy
1:53 PM 26.1 °F 18.4 °F 8.1 °F 47% 30.15 in 10.0 mi South 6.9 mph - N/A   Overcast
2:53 PM 26.1 °F 17.6 °F 10.0 °F 51% 30.13 in 9.0 mi South 8.1 mph - N/A   Overcast
3:53 PM 28.0 °F 21.7 °F 10.0 °F 47% 30.08 in 10.0 mi South 5.8 mph 16.1 mph N/A   Overcast
4:53 PM 28.0 °F 20.0 °F 10.0 °F 47% 30.07 in 10.0 mi South 8.1 mph - N/A   Overcast
5:53 PM 28.0 °F 22.8 °F 12.0 °F 51% 30.05 in 10.0 mi South 4.6 mph - N/A   Overcast
6:53 PM 27.0 °F 23.0 °F 16.0 °F 63% 30.06 in 10.0 mi South 3.5 mph - N/A   Mostly Cloudy
7:53 PM 26.1 °F - 18.0 °F 71% 30.05 in 10.0 mi Calm Calm - N/A   Overcast
8:53 PM 27.0 °F - 18.0 °F 69% 30.03 in 10.0 mi Calm Calm - N/A   Overcast
9:53 PM 26.1 °F - 19.0 °F 75% 30.02 in 10.0 mi Calm Calm - N/A   Overcast
10:53 PM 26.1 °F - 19.0 °F 75% 30.01 in 10.0 mi Calm Calm - N/A   Overcast
11:53 PM 25.0 °F - 19.0 °F 78% 30.02 in 10.0 mi Calm Calm - N/A   Overcast